View from above orbital plane
|
View from above satellite
|
Ground track
|
The orbit data is extracted from the following two-line orbital elements,
1 43803U 18099AX 22177.42384160 .00001372 00000-0 12366-3 0 9996
2 43803 97.6201 244.2225 0013312 233.7976 126.2016 14.97124378194416
Epoch (UTC): | 26 June 2022 10:10:19 |
Eccentricity: | 0.0013312 |
inclination: | 97.6201° |
perigee height: | 566 km |
apogee height: | 585 km |
right ascension of ascending node: | 244.2225° |
argument of perigee: | 233.7976° |
revolutions per day: | 14.97124378 |
mean anomaly at epoch: | 126.2016° |
orbit number at epoch: | 19441 |
The dashed part of the orbit path shows where the satellite is in the earth's shadow,
|
|